Location: Arpaise
(41.0333°N, 14.7333°E)
Time: 07:29:31
(UTC+00:00)

BREEZE-M DEB (TANK) - Pass Details

Date: 05 July 2020
Orbit: 274 x 20503 km, 49.2° (Epoch: 05 August)

Event Time Altitude Azimuth Distance (km) Brightness Sun altitude
Rises 19:21:12 0° 219° (SW) 7,705 8.6 -7.7°
Reaches altitude 10° 19:28:48 10° 214° (SSW) 4,462 7.3 -8.8°
Maximum altitude 19:36:37 34° 152° (SSE) 1,175 4.0 -9.9°
Drops below altitude 10° 19:39:24 10° 83° (E) 1,554 4.7 -10.3°
Enters shadow 19:40:25 - 74° (ENE) 1,983 5.4 -10.5°
